This is the latest recevied weather packets stored in our database for station/object F5ZMN-13. If no packets are shown the sender has not sent any weather packets the latest 10 day(s).
| Time | Temp. | Humidity | Pressure | Rain* | Wind** | Luminosity | Snow |
|---|---|---|---|---|---|---|---|
| 1787676342 | 26.67° C | 46% | 1015.3 hPa | - | - | - | - |
| 1787675727 | 26.67° C | 44% | 1015.2 hPa | - | - | - | - |
| 1787675112 | 26.67° C | 43% | 1015.2 hPa | - | - | - | - |
| 1787674497 | 27.78° C | 38% | 1015.2 hPa | - | - | - | - |
| 1787673882 | 27.78° C | 56% | 1015.2 hPa | - | - | - | - |
| 1787670909 | 24.44° C | 67% | 1017.9 hPa | - | - | - | - |
| 1787670813 | 24.44° C | 67% | 1017.9 hPa | - | - | - | - |
| 1787670340 | 24.44° C | 67% | 1017.9 hPa | - | - | - | - |
| 1787669725 | 24.44° C | 68% | 1017.8 hPa | - | - | - | - |
| 1787669110 | 24.44° C | 67% | 1018 hPa | - | - | - | - |
| 1787668495 | 24.44° C | 68% | 1018 hPa | - | - | - | - |
| 1787667880 | 24.44° C | 68% | 1018.1 hPa | - | - | - | - |
| 1787667264 | 24.44° C | 68% | 1018.3 hPa | - | - | - | - |
| 1787666650 | 24.44° C | 68% | 1018.3 hPa | - | - | - | - |
| 1787666034 | 24.44° C | 67% | 1018.3 hPa | - | - | - | - |
| 1787665419 | 24.44° C | 68% | 1018.3 hPa | - | - | - | - |
| 1787664804 | 24.44° C | 67% | 1018.4 hPa | - | - | - | - |
| 1787664189 | 24.44° C | 67% | 1018.5 hPa | - | - | - | - |
| 1787663574 | 24.44° C | 67% | 1018.5 hPa | - | - | - | - |
| 1787662959 | 24.44° C | 67% | 1018.5 hPa | - | - | - | - |
| 1787662344 | 24.44° C | 67% | 1018.5 hPa | - | - | - | - |
| 1787661729 | 24.44° C | 67% | 1018.5 hPa | - | - | - | - |
| 1787661115 | 24.44° C | 67% | 1018.6 hPa | - | - | - | - |
| 1787660499 | 24.44° C | 67% | 1018.7 hPa | - | - | - | - |
| 1787659884 | 24.44° C | 67% | 1018.7 hPa | - | - | - | - |
* Rain since midnight (hover to see other rain measurements)
** Current wind speed in m/s (hover to see current wind gust speed)